Preview of NWS' New Version of Forecast
This preview is not operational and should not be used for support decisions.

Regional Weather Roundup (RWR)

Issued by Nashville, TN (OHX)

                            
000
ASUS44 KOHX 201010
RWROHX
MIDDLE TENNESSEE HOURLY WEATHER ROUNDUP
NATIONAL WEATHER SERVICE NASHVILLE TN
400 AM CST WED FEB 20 2019

NOTE: "FAIR" INDICATES FEW OR NO CLOUDS BELOW 12,000 FEET WITH
NO SIGNIFICANT WEATHER AND/OR OBSTRUCTIONS TO VISIBILITY.

* THESE REPORTS ARE NOT UNDER NWS QUALITY CONTROL AND MAY NOT
  REPORT WEATHER SUCH AS PRECIPITATION AND FOG.


TNZ005>011-023>034-057-059-062>066-078-080-201100
...NORTHERN MIDDLE TENNESSEE...
  
CITY           SKY/WX    TMP DP  RH WIND       PRES   REMARKS
CLARKSVILLE    HVY RAIN  40  37  89 N10       29.94R FOG     WCI  33  
CROSSVILLE     CLOUDY    41  40  96 S12G24    29.98F                  
DICKSON        CLOUDY    46  46 100 NW5       29.91R FOG              
GALLATIN       CLOUDY    45  45 100 SE5       29.91F                  
LEBANON        CLOUDY    50  46  87 S12G20    29.88F                  
LIVINGSTON     CLOUDY    50 N/A N/A SW16G29   29.91R                  
NASHVILLE      CLOUDY    49  45  86 S16       29.88F                  
ROCKWOOD       FOG       39  39 100 SW12G22   30.02F VSB 3/4 WCI  32  
SMYRNA         CLOUDY    49  46  90 S13G22    29.91F                  
SPARTA         CLOUDY    50  46  87 S15G23    29.94R                  
SPRINGFIELD    CLOUDY    45  45 100 N9        29.91R FOG              
WEST NASHVILLE CLOUDY    48  46  93 S9        29.86F                  
$$
TNZ056-058-060-061-075>077-079-093>097-201100
...SOUTHERN MIDDLE TENNESSEE...
  
CITY           SKY/WX    TMP DP  RH WIND       PRES   REMARKS
COLUMBIA       CLOUDY    50  50 100 S10G22    29.87S                  
FAYETTEVILLE   CLOUDY    46  46 100 S25G35    29.92F                  
LAWRENCEBURG   CLOUDY    48  46  93 S21G29    29.88R FOG              
LEWISBURG      CLOUDY    48  46  93 S16G23    29.88S                  
MCMINNVILLE    CLOUDY    50  46  87 S10G20    29.92F                  
PULASKI        CLOUDY    48  46  93 S18G25    29.90S                  
SHELBYVILLE    CLOUDY    48  46  93 S22G35    29.89F                  
TULLAHOMA      CLOUDY    46  45  93 S16G26    29.92S                  
WINCHESTER     CLOUDY    46  43  87 S15G25    29.95F                  
$$


...KEY TO REMARKS...
VSB - VISIBILITY IN MILES
WCI - WIND CHILL INDEX
HX  - HEAT INDEX